Flag for Finland Weather past 2 weeks in Helsinki, Finland

Now
43 °F

Partly sunny.


Feels Like: 43 °F
Forecast: 42 / 51 °F
Wind: 1 mph from North

Location: Helsinki Malmi Airport

Current Time: Apr 27, 2015 at 10:52:34 AM

Latest Report: Apr 27, 2015 at 10:20 AM


Visibility: N/A

Pressure: 29.71 "Hg

Humidity: 93%

Dew point: 41 °F

Location of HelsinkiLocation

Historic Weather in Helsinki — Graph

°F

Helsinki temperature yesterday

Maximum temperature yesterday: 46 °F (at 5:20 PM)
Minimum temperature yesterday: 39 °F (at 8:20 AM)
Average temperature yesterday: 43 °F

Past Weeks' High & Low Weather Summary

 TemperatureHumidityPressure
High54 °F (Apr 12, 12:20 PM)100% (Apr 12, 3:20 PM)30.09 "Hg (Apr 12, 3:20 PM)
Low27 °F (Apr 15, 6:50 AM)32% (Apr 23, 4:50 PM)29.21 "Hg (Apr 16, 3:50 AM)
Average42 °F66%29.69 "Hg
* Reported Apr 12 9:20 AM — Apr 27 9:20 AM, Helsinki, Weather by CustomWeather, © 2015

Note: Actual official high and low records may vary slightly from our data, if they occured in-between our weather recording intervals... More about our weather records

Advertising

Helsinki weather history for previous 24 hours

 ConditionsComfort  
Time TempWeatherWind HumidityBarometerVisibility
9:20 AM
Mon, Apr 27
41 °FPartly sunny.2 mph93%29.71 "HgN/A
8:50 AM41 °FPartly sunny.2 mph93%29.71 "Hg4 mi
8:20 AM39 °FFog.1 mph100%29.71 "Hg2 mi
7:50 AM39 °FFog.1 mph93%29.68 "Hg1 mi
7:20 AM37 °FFog.2 mph100%29.68 "Hg1 mi
6:20 AM37 °FFog.2 mph100%29.68 "Hg1 mi
5:50 AM39 °FFog.2 mph93%29.68 "Hg2 mi
5:20 AM37 °FFog.2 mph100%29.65 "Hg1 mi
4:50 AM39 °FLow clouds.2 mph100%29.65 "Hg3 mi
4:20 AM39 °FLow clouds.2 mph100%29.65 "Hg3 mi
3:50 AM39 °FLow clouds.3 mph100%29.65 "Hg5 mi
3:20 AM41 °FLow clouds.3 mph93%29.65 "Hg5 mi
2:50 AM39 °FFog.1 mph100%29.65 "Hg1 mi
2:20 AM39 °FFog.2 mph100%29.65 "Hg0 mi
1:50 AM39 °FFog.1 mph100%29.65 "Hg0 mi
1:20 AM39 °FFog.2 mph100%29.65 "Hg0 mi
12:50 AM39 °FFog.3 mph100%29.62 "Hg0 mi
12:20 AM41 °FFog.3 mph100%29.62 "Hg0 mi
11:50 PM
Sun, Apr 26
43 °FFog.5 mph100%29.62 "Hg0 mi
11:20 PM43 °FFog.2 mph100%29.62 "Hg0 mi
10:50 PM43 °FFog.No wind100%29.62 "Hg0 mi
10:20 PM43 °FFog.6 mph100%29.62 "Hg0 mi
9:50 PM45 °FFog.3 mph100%29.62 "Hg0 mi
9:20 PM45 °FFog.2 mph100%29.59 "Hg0 mi
8:50 PM45 °FFog.3 mph100%29.59 "Hg1 mi
8:20 PM45 °FFog.3 mph100%29.59 "Hg1 mi
7:50 PM46 °FFog.3 mph93%29.59 "Hg2 mi
7:20 PM46 °FFog.3 mph93%29.59 "Hg2 mi
6:50 PM46 °FFog.3 mph93%29.59 "Hg2 mi
6:20 PM46 °FFog.1 mph93%29.59 "Hg2 mi
5:50 PM46 °FPartly sunny.1 mph93%29.59 "Hg3 mi
5:20 PM46 °FPartly sunny.1 mph93%29.59 "Hg4 mi
4:50 PM45 °FPartly sunny.2 mph100%29.56 "Hg4 mi
4:20 PM45 °FFog.1 mph100%29.56 "Hg2 mi
3:50 PM43 °FFog.1 mph100%29.56 "Hg1 mi
3:20 PM43 °FFog.6 mph93%29.56 "Hg1 mi
2:50 PM41 °FDrizzle. Partly sunny.6 mph100%29.56 "Hg3 mi
2:20 PM41 °FDrizzle. Partly sunny.6 mph100%29.56 "HgN/A
1:50 PM41 °FLight rain. Partly sunny.9 mph100%29.56 "Hg4 mi
1:20 PM41 °FLight rain. Partly sunny.9 mph100%29.56 "HgN/A
12:50 PM41 °FLight rain. Partly sunny.10 mph93%29.56 "HgN/A
12:20 PM41 °FLight rain. Partly sunny.12 mph93%29.59 "HgN/A
11:50 AM39 °FLight rain. Partly sunny.8 mph100%29.59 "HgN/A
11:20 AM39 °FLight rain. Low clouds.10 mph100%29.59 "Hg5 mi
10:50 AM39 °FLight rain. Low clouds.10 mph100%29.59 "Hg6 mi
10:20 AM39 °FLight rain. Low clouds.10 mph100%29.59 "HgN/A
Weather by CustomWeather, © 2015

See weather overviewHow to use our weather pages